Regional Weather Roundup
Issued by NWS Goodland, KS

Home | Current Version | Previous Version | Graphics & Text | Print | Product List | Glossary On
Versions: 1 2 3 4 5 6 7 8 9 10 11 12 13 14 15 16 17 18 19 20 21 22 23 24 25 26 27 28 29 30 31 32 33 34 35 36 37 38 39 40 41 42 43 44 45 46 47 48 49 50
000
ASUS43 KGLD 191659
RWRGLD

GOODLAND FORECAST AREA HOURLY WEATHER ROUNDUP
NATIONAL WEATHER SERVICE GOODLAND KS
1000 AM MST SUN FEB 19 2017

...OFFICIAL OBSERVATIONS...

CITY           SKY/WX    TMP DP  RH WIND       PRES   REMARKS
GOODLAND KS    CLOUDY    60  37  42 S22G30    29.73R
HILL CITY KS   CLOUDY    58  49  72 S14       29.82S
IMPERIAL NEB   CLOUDY    52  36  54 S10       29.72S
MCCOOK NEB     MOSUNNY   54  46  74 S13       29.75S
AKRON CO       CLOUDY    54  29  38 SW10      29.70R
BURLINGTON CO  CLOUDY    63  35  35 S29G38    29.73S
LIMON CO       CLOUDY    53  30  41 SE10      29.75R
$$

...UNOFFICIAL OBSERVATIONS...

CITY           SKY/WX    TMP DP  RH WIND       PRES   REMARKS
LENORA KS        N/A     58  32  37 S13         N/A
NORTON KS      SUNNY     55  45  67 S12G21    29.79S
SHARON SPRINGS   N/A     57  42  58 S21G28      N/A
TRENTON NEB      N/A     52  32  46 SW7         N/A
KIT CARSON CO    N/A     54  37  52 MISG        N/A
YUMA CO        FAIR      54  32  43 E3        29.70R
$$



USA.gov is the U.S. government's official web portal to all federal, state and local government web resources and services.